When you browse on this site, cookies collect data to enhance your experience and personalize the content and advertising you see.
Visit our Privacy Policy to learn more. By continuing to use the site, you agree to this use of cookies and data.
  • In Switzerland
  • List of Countries
  • For 7 days
  • Water Temperature
  • Satellite Maps
  • Weather Map
  • Weather Widgets
  • user-avatar
    Login

    Hourly Weather Zataje

    Today, 18 February, Monday

    Time Temperature Precipitation Wind Pressure Humidity
    00:00 +5°C° 0 mm 1 mps 754 mmHg 75%
    01:00 +5°C° 0 mm 1 mps 754 mmHg 76%
    02:00 +4°C° 0 mm 2 mps 753 mmHg 77%
    03:00 +3°C° 0 mm 2 mps 753 mmHg 78%
    04:00 +3°C° 0 mm 2 mps 753 mmHg 80%
    05:00 +3°C° 0 mm 2 mps 753 mmHg 80%
    06:00 +2°C° 0 mm 2 mps 753 mmHg 80%
    07:00 +2°C° 0 mm 2 mps 752 mmHg 81%
    08:00 +3°C° 0 mm 2 mps 752 mmHg 75%
    09:00 +5°C° 0 mm 2 mps 752 mmHg 70%
    10:00 +6°C° 0 mm 2 mps 752 mmHg 64%
    11:00 +7°C° 0 mm 2 mps 752 mmHg 59%
    12:00 +8°C° 0 mm 2 mps 752 mmHg 53%
    13:00 +10°C° 0 mm 2 mps 752 mmHg 47%
    14:00 +11°C° 0 mm 1 mps 751 mmHg 49%
    15:00 +11°C° 0 mm 1 mps 751 mmHg 50%
    16:00 +10°C° 0 mm 1 mps 751 mmHg 52%
    17:00 +8°C° 0 mm 2 mps 751 mmHg 55%
    18:00 +7°C° 0 mm 2 mps 750 mmHg 59%
    19:00 +6°C° 0 mm 2 mps 750 mmHg 62%
    20:00 +6°C° 0 mm 2 mps 750 mmHg 65%
    21:00 +5°C° 0 mm 2 mps 750 mmHg 69%
    22:00 +5°C° 0 mm 2 mps 750 mmHg 73%
    23:00 +4°C° 0 mm 3 mps 750 mmHg 75%

    Tomorrow, 19 February, Tuesday

    Time Temperature Precipitation Wind Pressure Humidity
    00:00 +3°C° 0 mm 3 mps 750 mmHg 77%
    01:00 +3°C° 0 mm 3 mps 749 mmHg 79%
    02:00 +2°C° 0 mm 3 mps 749 mmHg 79%
    03:00 +2°C° 0 mm 3 mps 749 mmHg 79%
    04:00 +1°C° 0 mm 3 mps 748 mmHg 80%
    05:00 +1°C° 0 mm 3 mps 748 mmHg 81%
    06:00 +1°C° 0 mm 3 mps 748 mmHg 82%
    07:00 0°C° 0 mm 4 mps 748 mmHg 83%
    08:00 +1°C° 0 mm 4 mps 748 mmHg 77%
    09:00 +4°C° 0 mm 4 mps 747 mmHg 71%
    10:00 +5°C° 0 mm 5 mps 747 mmHg 65%
    11:00 +6°C° 0 mm 5 mps 747 mmHg 61%
    12:00 +8°C° 0 mm 5 mps 747 mmHg 57%
    13:00 +9°C° 0 mm 5 mps 747 mmHg 53%
    14:00 +10°C° 0 mm 4 mps 746 mmHg 54%
    15:00 +10°C° 0 mm 4 mps 746 mmHg 54%
    16:00 +10°C° 0 mm 4 mps 746 mmHg 55%
    17:00 +8°C° 0 mm 4 mps 746 mmHg 60%
    18:00 +7°C° 0 mm 4 mps 746 mmHg 66%
    19:00 +6°C° 0 mm 4 mps 747 mmHg 71%
    20:00 +6°C° 0.3 mm 4 mps 747 mmHg 77%
    21:00 +6°C° 0.3 mm 4 mps 747 mmHg 82%
    22:00 +5°C° 0.3 mm 4 mps 747 mmHg 88%
    23:00 +5°C° 0.1 mm 4 mps 748 mmHg 89%

    Day after tomorrow, 20 February, Wednesday

    Time Temperature Precipitation Wind Pressure Humidity
    00:00 +4°C° 0.1 mm 4 mps 748 mmHg 90%
    01:00 +3°C° 0.1 mm 4 mps 748 mmHg 91%
    02:00 +3°C° 0 mm 4 mps 748 mmHg 91%
    03:00 +2°C° 0 mm 5 mps 748 mmHg 90%
    04:00 +2°C° 0 mm 5 mps 749 mmHg 90%
    05:00 +2°C° 0 mm 5 mps 749 mmHg 90%
    06:00 +2°C° 0 mm 5 mps 749 mmHg 90%
    07:00 +2°C° 0 mm 5 mps 750 mmHg 90%
    08:00 +2°C° 0 mm 5 mps 750 mmHg 86%
    09:00 +3°C° 0 mm 5 mps 750 mmHg 83%
    10:00 +4°C° 0 mm 6 mps 750 mmHg 80%
    11:00 +4°C° 0 mm 6 mps 750 mmHg 77%
    12:00 +4°C° 0 mm 6 mps 751 mmHg 74%
    13:00 +4°C° 0 mm 6 mps 751 mmHg 70%
    14:00 +5°C° 0 mm 6 mps 751 mmHg 69%
    15:00 +6°C° 0 mm 5 mps 751 mmHg 69%
    16:00 +6°C° 0 mm 5 mps 751 mmHg 68%
    17:00 +5°C° 0 mm 4 mps 751 mmHg 71%
    18:00 +5°C° 0 mm 3 mps 751 mmHg 75%
    19:00 +4°C° 0 mm 3 mps 752 mmHg 79%
    20:00 +4°C° 0 mm 3 mps 752 mmHg 81%
    21:00 +4°C° 0 mm 3 mps 752 mmHg 82%
    22:00 +4°C° 0 mm 3 mps 752 mmHg 84%
    23:00 +3°C° 0 mm 3 mps 752 mmHg 86%

    21 February, Thursday

    Time Temperature Precipitation Wind Pressure Humidity
    00:00 +3°C° 0 mm 4 mps 752 mmHg 87%
    01:00 +3°C° 0 mm 4 mps 752 mmHg 89%
    02:00 +3°C° 0 mm 4 mps 752 mmHg 88%
    03:00 +3°C° 0 mm 4 mps 752 mmHg 87%
    04:00 +3°C° 0 mm 4 mps 752 mmHg 87%
    05:00 +3°C° 0.2 mm 4 mps 752 mmHg 87%
    06:00 +3°C° 0.2 mm 4 mps 752 mmHg 88%
    07:00 +3°C° 0.2 mm 4 mps 752 mmHg 88%
    08:00 +2°C° 0.2 mm 5 mps 752 mmHg 87%
    09:00 +3°C° 0.2 mm 5 mps 752 mmHg 86%
    10:00 +3°C° 0.2 mm 5 mps 752 mmHg 86%
    11:00 +5°C° 0.2 mm 5 mps 752 mmHg 84%
    12:00 +5°C° 0.2 mm 5 mps 752 mmHg 83%
    13:00 +6°C° 0.2 mm 4 mps 752 mmHg 82%
    14:00 +6°C° 0.4 mm 4 mps 752 mmHg 85%
    15:00 +5°C° 0.4 mm 4 mps 752 mmHg 88%
    16:00 +5°C° 0.4 mm 4 mps 752 mmHg 91%
    17:00 +5°C° 0.2 mm 3 mps 752 mmHg 93%
    18:00 +5°C° 0.2 mm 3 mps 753 mmHg 94%
    19:00 +5°C° 0.2 mm 3 mps 753 mmHg 95%
    20:00 +5°C° 0 mm 3 mps 754 mmHg 96%
    21:00 +6°C° 0 mm 2 mps 754 mmHg 96%
    22:00 +5°C° 0 mm 2 mps 754 mmHg 97%
    23:00 +5°C° 0 mm 2 mps 755 mmHg 97%

    22 February, Friday

    Time Temperature Precipitation Wind Pressure Humidity
    00:00 +6°C° 0 mm 2 mps 755 mmHg 97%
    01:00 +6°C° 0 mm 2 mps 756 mmHg 97%
    02:00 +5°C° 0.1 mm 2 mps 756 mmHg 97%
    03:00 +5°C° 0.1 mm 2 mps 757 mmHg 97%
    04:00 +5°C° 0.1 mm 2 mps 757 mmHg 97%
    05:00 +5°C° 0.1 mm 2 mps 758 mmHg 97%
    06:00 +4°C° 0.1 mm 3 mps 758 mmHg 97%
    07:00 +4°C° 0.1 mm 3 mps 759 mmHg 97%
    08:00 +4°C° 0 mm 3 mps 760 mmHg 94%
    09:00 +4°C° 0 mm 3 mps 760 mmHg 92%
    10:00 +4°C° 0 mm 3 mps 761 mmHg 90%
    11:00 +4°C° 0 mm 3 mps 761 mmHg 86%
    12:00 +5°C° 0 mm 3 mps 762 mmHg 82%
    13:00 +6°C° 0 mm 2 mps 762 mmHg 78%
    14:00 +5°C° 0 mm 3 mps 762 mmHg 73%
    15:00 +5°C° 0 mm 3 mps 762 mmHg 69%
    16:00 +5°C° 0 mm 3 mps 763 mmHg 64%
    17:00 +4°C° 0 mm 3 mps 763 mmHg 62%
    18:00 +4°C° 0 mm 2 mps 764 mmHg 60%
    19:00 +3°C° 0 mm 2 mps 764 mmHg 57%
    20:00 +3°C° 0 mm 2 mps 765 mmHg 56%
    21:00 +2°C° 0 mm 2 mps 765 mmHg 55%
    22:00 +2°C° 0 mm 2 mps 765 mmHg 54%
    23:00 +2°C° 0 mm 1 mps 766 mmHg 55%

    23 February, Saturday

    Time Temperature Precipitation Wind Pressure Humidity
    00:00 +2°C° 0 mm 1 mps 766 mmHg 56%
    01:00 +2°C° 0 mm 1 mps 766 mmHg 58%
    02:00 +1°C° 0 mm 1 mps 766 mmHg 57%
    03:00 +1°C° 0 mm 1 mps 766 mmHg 57%
    04:00 +1°C° 0 mm 1 mps 766 mmHg 56%
    05:00 +2°C° 0 mm 1 mps 766 mmHg 55%
    06:00 +2°C° 0 mm 1 mps 766 mmHg 54%
    07:00 +2°C° 0 mm 1 mps 766 mmHg 52%
    08:00 +3°C° 0 mm 1 mps 766 mmHg 49%
    09:00 +4°C° 0 mm 1 mps 766 mmHg 45%
    10:00 +4°C° 0 mm 2 mps 766 mmHg 42%
    11:00 +5°C° 0 mm 2 mps 766 mmHg 45%
    12:00 +6°C° 0 mm 2 mps 765 mmHg 47%
    13:00 +7°C° 0 mm 2 mps 765 mmHg 50%
    14:00 +7°C° 0 mm 3 mps 765 mmHg 55%
    15:00 +7°C° 0 mm 3 mps 764 mmHg 60%
    16:00 +8°C° 0 mm 3 mps 764 mmHg 64%
    17:00 +7°C° 0 mm 3 mps 764 mmHg 70%
    18:00 +5°C° 0 mm 3 mps 764 mmHg 76%
    19:00 +5°C° 0 mm 2 mps 764 mmHg 82%
    20:00 +4°C° 0 mm 3 mps 764 mmHg 84%
    21:00 +3°C° 0 mm 3 mps 763 mmHg 86%
    22:00 +3°C° 0 mm 3 mps 763 mmHg 87%
    23:00 +3°C° 0 mm 3 mps 763 mmHg 88%
    Show more